Home > Weather > Kumanovo > Past weeks

Flag for Macedonia, Republic of Weather for the Past 2 Weeks in Kumanovo, Macedonia, Republic of

Now
64 °F

Passing clouds.


Feels Like: 64 °F
Forecast: 50 / 63 °F
Wind: 2 mph from North

Location: Skopje-Petrovec

Current Time: May 1, 2016 at 10:47:21 AM

Latest Report: May 1, 2016 at 10:00 AM


Visibility: N/A

Pressure: 30.04 "Hg

Humidity: 64%

Dew Point: 52 °F

Location of KumanovoLocation

Historic Weather in Kumanovo — Graph

°F

Kumanovo Temperature Yesterday

Maximum temperature yesterday: 70 °F (at 2:30 PM)
Minimum temperature yesterday: 50 °F (at 6:00 AM)
Average temperature yesterday: 61 °F

High & Low Weather Summary for the Past Weeks

 TemperatureHumidityPressure
High86 °F (Apr 19, 2:30 PM)100% (Apr 21, 5:30 AM)30.39 "Hg (Apr 21, 5:30 AM)
Low32 °F (Apr 21, 5:30 AM)10% (Apr 21, 4:30 PM)29.45 "Hg (Apr 24, 4:00 PM)
Average58 °F64%29.96 "Hg
* Reported Apr 16 8:00 AM — May 1 8:30 AM, Kumanovo, Weather by CustomWeather, © 2016

Note: Actual official high and low records may vary slightly from our data, if they occured in-between our weather recording intervals... More about our weather records

Advertising

Kumanovo Weather History for the Previous 24 Hours

Scroll right to see more
 ConditionsComfort  
Time TempWeatherWind HumidityBarometerVisibility
8:30 AM
Sun, May 1
57 °FScattered clouds.1 mph77%30.04 "HgN/A
8:00 AM54 °FScattered clouds.No wind82%30.04 "HgN/A
7:30 AM52 °FScattered clouds.No wind88%30.04 "HgN/A
6:30 AM45 °FScattered clouds.No wind100%30.04 "Hg5 mi
6:00 AM45 °FPassing clouds.No wind100%30.04 "Hg4 mi
5:30 AM45 °FPassing clouds.No wind100%30.04 "Hg4 mi
4:30 AM46 °FPassing clouds.No wind93%30.04 "HgN/A
3:30 AM50 °FPassing clouds.2 mph88%30.04 "HgN/A
3:00 AM50 °FPassing clouds.2 mph88%30.04 "HgN/A
2:30 AM50 °FPassing clouds.2 mph88%30.04 "HgN/A
1:30 AM50 °FPassing clouds.No wind88%30.04 "HgN/A
1:00 AM50 °FPassing clouds.No wind88%30.04 "HgN/A
12:30 AM54 °FPassing clouds.3 mph77%30.04 "HgN/A
12:00 AM54 °FPassing clouds.6 mph77%30.04 "HgN/A
11:00 PM
Sat, Apr 30
55 °FPassing clouds.5 mph77%30.04 "HgN/A
10:30 PM57 °FPassing clouds.5 mph72%30.04 "HgN/A
10:00 PM59 °FPassing clouds.No wind72%30.04 "HgN/A
9:30 PM59 °FPassing clouds.6 mph72%30.04 "HgN/A
9:00 PM59 °FPassing clouds.6 mph72%30.04 "HgN/A
8:30 PM61 °FScattered clouds.9 mph68%30.04 "HgN/A
8:00 PM61 °FPassing clouds.8 mph68%30.04 "HgN/A
7:30 PM63 °FPassing clouds.9 mph64%30.01 "HgN/A
7:00 PM64 °FPassing clouds.10 mph56%30.01 "HgN/A
6:30 PM66 °FPassing clouds.9 mph52%30.01 "HgN/A
6:00 PM68 °FPassing clouds.10 mph46%30.01 "HgN/A
5:30 PM68 °FPassing clouds.9 mph46%30.01 "HgN/A
5:00 PM68 °FPassing clouds.9 mph46%30.01 "HgN/A
4:30 PM70 °FPassing clouds.8 mph43%30.01 "HgN/A
4:00 PM70 °FPassing clouds.6 mph43%30.01 "HgN/A
3:30 PM70 °FPassing clouds.3 mph43%30.04 "HgN/A
3:00 PM70 °FPassing clouds.3 mph43%30.04 "HgN/A
2:30 PM70 °FPassing clouds.3 mph43%30.04 "HgN/A
2:00 PM68 °FPassing clouds.6 mph49%30.07 "HgN/A
1:30 PM68 °FPassing clouds.2 mph49%30.07 "HgN/A
1:00 PM68 °FPassing clouds.2 mph53%30.07 "HgN/A
12:30 PM66 °FScattered clouds.2 mph56%30.07 "HgN/A
12:00 PM64 °FScattered clouds.2 mph60%30.09 "HgN/A
11:30 AM63 °FPartly sunny.2 mph64%30.09 "HgN/A
11:00 AM63 °FPartly sunny.5 mph64%30.09 "HgN/A
10:30 AM61 °FScattered clouds.3 mph68%30.09 "HgN/A
10:00 AM59 °FScattered clouds.5 mph72%30.09 "HgN/A
Weather by CustomWeather, © 2016

See weather overviewHow to use our weather pages